Location: Casa Rossa
(45.2389°N, 12.2056°E)
Time: 03:40:26
(UTC+00:00)

Cosmos 921 Rocket - Pass Details

Date: 14 July 2020
Orbit: 572 x 631 km, 75.8° (Epoch: 11 August)

Event Time Altitude Azimuth Distance (km) Brightness Sun altitude
Rises 02:06:57 0° 335° (NNW) 2,895 6.8 -12.8°
Reaches altitude 10° 02:09:18 10° 329° (NNW) 1,976 5.9 -12.5°
Maximum altitude 02:13:27 42° 258° (WSW) 862 3.4 -12.0°
Enters shadow 02:17:10 12° 189° (S) 1,802 4.9 -11.6°
